EW4351 Weather Reports


time (UTC)temp
C
wind
direction
speed
KPH
gust
KPH
rain 1hr
cm
rain 24hr
cm
rain mn
cm
humidity
%
barometer
mb
20260504230934 13 156 0.0 0.0 0.00 0.03 0.03 76 1006.4
20260504225504 14 156 0.0 0.0 0.00 0.03 0.03 70 1006.3
20260504220756 16 188 0.0 0.0 0.00 0.03 0.03 63 1006.1
20260504215253 16 198 0.0 0.0 0.00 0.03 0.03 64 1005.9
20260504213821 16 180 0.0 0.0 0.00 0.03 0.03 65 1005.8
20260504212337 16 181 0.0 0.0 0.00 0.03 0.03 64 1005.7
20260504210822 16 186 0.0 0.0 0.00 0.03 0.03 65 1005.6
20260504203706 16 208 0.0 0.0 0.00 0.03 0.03 65 1005.5
20260504202158 16 182 0.0 6.4 0.00 0.03 0.03 66 1005.6
20260504200714 16 189 0.0 0.0 0.00 0.03 0.03 68 1005.6
20260504195228 15 172 0.0 0.0 0.00 0.03 0.03 69 1005.5
20260504193640 15 168 0.0 0.0 0.00 0.03 0.03 74 1005.6
20260504192057 13 197 0.0 0.0 0.00 0.03 0.03 76 1005.7
20260504184838 11 194 0.0 0.0 0.00 0.10 0.03 83 1006.5
20260504183303 11 205 0.0 0.0 0.00 0.13 0.03 81 1006.8
20260504181749 12 215 0.0 0.0 0.00 0.13 0.00 76 1006.9
20260504180202 13 195 0.0 0.0 0.00 0.15 0.00 68 1006.5
20260504171350 13 208 0.0 1.6 0.00 0.25 0.00 66 1006.0
20260504141317 13 201 0.0 0.0 0.00 0.69 0.00 53 1007.2
20260504080740 2 265 0.0 0.0 0.00 1.52 0.00 88 1007.3
20260504050001 2 265 0.0 0.0 0.00 1.70 0.00 87 1005.9
20260504044454 2 265 0.0 0.0 0.00 1.70 0.00 87 1006.0
20260504041247 2 265 0.0 0.0 0.00 1.70 0.00 87 1005.8
20260504035745 2 265 0.0 0.0 0.00 1.70 1.73 87 1005.7
20260504034226 2 265 0.0 0.0 0.00 1.70 1.73 87 1005.6
20260504032718 3 265 0.0 0.0 0.00 1.70 1.73 87 1005.5
20260504031225 3 265 0.0 0.0 0.00 1.70 1.73 87 1005.4
20260504025721 3 265 0.0 0.0 0.00 1.70 1.73 88 1005.3
20260504024259 3 265 0.0 0.0 0.00 1.70 1.73 88 1005.0
20260504022730 3 265 0.0 0.0 0.00 1.70 1.73 87 1005.1
20260504015606 4 265 0.0 0.0 0.00 1.70 1.73 89 1004.9
20260504014050 5 265 0.0 0.0 0.00 1.70 1.73 89 1004.7
20260504012539 5 265 0.0 0.0 0.00 1.70 1.73 89 1004.5
20260504005357 6 264 0.0 0.0 0.00 1.70 1.73 91 1004.0
20260504003924 6 264 0.0 0.0 0.00 1.70 1.73 91 1003.8
20260504002335 6 264 0.0 0.0 0.00 1.70 1.73 90 1003.5
20260504000818 7 264 0.0 0.0 0.00 1.70 1.73 90 1003.3
20260503235329 7 264 0.0 0.0 0.00 1.70 1.73 89 1003.1
20260503233840 7 264 0.0 0.0 0.00 1.70 1.73 89 1003.0
20260503232314 7 284 0.0 0.0 0.00 1.70 1.73 89 1002.6